• In Belgien
  • Länderverzeichnis
  • Für 7 Tage
  • Wassertemperatur
  • Satellitenkarten
  • Wetterkarte
  • Widgets
  • user-avatar
    Anmelden

    Stündliche Wetter Constantine

    Heute, 19 August, Samstag

    Zeit Temperatur Niederschläge Wind Luftdruck Luftfeuchtigkeit
    00:00 +28°C° 0 mm 0 m/S 711 mmHg 47%
    01:00 +27°C° 0 mm 0 m/S 711 mmHg 47%
    02:00 +27°C° 0 mm 0 m/S 711 mmHg 47%
    03:00 +27°C° 0 mm 0 m/S 710 mmHg 47%
    04:00 +27°C° 0 mm 0 m/S 711 mmHg 46%
    05:00 +29°C° 0 mm 1 m/S 711 mmHg 45%
    06:00 +30°C° 0 mm 1 m/S 711 mmHg 42%
    07:00 +31°C° 0 mm 1 m/S 711 mmHg 38%
    08:00 +34°C° 0 mm 2 m/S 712 mmHg 34%
    09:00 +35°C° 0 mm 2 m/S 712 mmHg 30%
    10:00 +36°C° 0 mm 3 m/S 712 mmHg 29%
    11:00 +37°C° 0 mm 3 m/S 712 mmHg 27%
    12:00 +37°C° 0 mm 4 m/S 712 mmHg 26%
    13:00 +37°C° 0 mm 4 m/S 712 mmHg 27%
    14:00 +37°C° 0 mm 4 m/S 712 mmHg 28%
    15:00 +37°C° 0 mm 4 m/S 712 mmHg 29%
    16:00 +36°C° 0 mm 4 m/S 712 mmHg 33%
    17:00 +34°C° 0 mm 4 m/S 712 mmHg 37%
    18:00 +33°C° 0 mm 4 m/S 712 mmHg 41%
    19:00 +30°C° 0 mm 4 m/S 712 mmHg 45%
    20:00 +29°C° 0 mm 3 m/S 712 mmHg 49%
    21:00 +28°C° 0 mm 2 m/S 713 mmHg 54%
    22:00 +27°C° 0 mm 2 m/S 713 mmHg 56%
    23:00 +27°C° 0 mm 1 m/S 713 mmHg 59%

    Morgen, 20 August, Sonntag

    Zeit Temperatur Niederschläge Wind Luftdruck Luftfeuchtigkeit
    00:00 +26°C° 0 mm 1 m/S 713 mmHg 62%
    01:00 +26°C° 0 mm 1 m/S 712 mmHg 64%
    02:00 +25°C° 0 mm 1 m/S 712 mmHg 65%
    03:00 +25°C° 0 mm 1 m/S 712 mmHg 67%
    04:00 +25°C° 0 mm 1 m/S 712 mmHg 66%
    05:00 +25°C° 0 mm 1 m/S 712 mmHg 65%
    06:00 +25°C° 0 mm 1 m/S 712 mmHg 65%
    07:00 +26°C° 0 mm 1 m/S 713 mmHg 56%
    08:00 +28°C° 0 mm 2 m/S 713 mmHg 48%
    09:00 +30°C° 0 mm 2 m/S 713 mmHg 39%
    10:00 +31°C° 0 mm 3 m/S 713 mmHg 37%
    11:00 +33°C° 0 mm 3 m/S 713 mmHg 34%
    12:00 +34°C° 0 mm 3 m/S 713 mmHg 32%
    13:00 +34°C° 0 mm 4 m/S 713 mmHg 33%
    14:00 +34°C° 0 mm 4 m/S 713 mmHg 33%
    15:00 +34°C° 0 mm 5 m/S 713 mmHg 34%
    16:00 +32°C° 0 mm 4 m/S 713 mmHg 38%
    17:00 +30°C° 0 mm 4 m/S 712 mmHg 43%
    18:00 +28°C° 0 mm 4 m/S 712 mmHg 47%
    19:00 +27°C° 0 mm 3 m/S 713 mmHg 50%
    20:00 +26°C° 0 mm 2 m/S 713 mmHg 54%
    21:00 +25°C° 0 mm 2 m/S 713 mmHg 57%
    22:00 +25°C° 0 mm 1 m/S 713 mmHg 59%
    23:00 +24°C° 0 mm 1 m/S 713 mmHg 60%

    übermorgen, 21 August, Montag

    Zeit Temperatur Niederschläge Wind Luftdruck Luftfeuchtigkeit
    00:00 +24°C° 0 mm 1 m/S 713 mmHg 61%
    01:00 +23°C° 0 mm 1 m/S 712 mmHg 62%
    02:00 +23°C° 0 mm 1 m/S 712 mmHg 63%
    03:00 +23°C° 0 mm 1 m/S 711 mmHg 64%
    04:00 +23°C° 0 mm 1 m/S 712 mmHg 64%
    05:00 +23°C° 0 mm 1 m/S 712 mmHg 64%
    06:00 +23°C° 0 mm 1 m/S 712 mmHg 63%
    07:00 +24°C° 0 mm 1 m/S 712 mmHg 56%
    08:00 +26°C° 0 mm 2 m/S 712 mmHg 48%
    09:00 +27°C° 0 mm 2 m/S 713 mmHg 40%
    10:00 +28°C° 0 mm 3 m/S 713 mmHg 35%
    11:00 +30°C° 0 mm 3 m/S 713 mmHg 31%
    12:00 +32°C° 0 mm 4 m/S 712 mmHg 27%
    13:00 +32°C° 0 mm 4 m/S 712 mmHg 26%
    14:00 +32°C° 0 mm 4 m/S 712 mmHg 26%
    15:00 +32°C° 0 mm 5 m/S 711 mmHg 26%
    16:00 +30°C° 0 mm 4 m/S 711 mmHg 31%
    17:00 +29°C° 0 mm 4 m/S 711 mmHg 36%
    18:00 +27°C° 0 mm 4 m/S 711 mmHg 40%
    19:00 +26°C° 0 mm 3 m/S 711 mmHg 45%
    20:00 +25°C° 0 mm 2 m/S 712 mmHg 50%
    21:00 +24°C° 0 mm 1 m/S 712 mmHg 55%
    22:00 +24°C° 0 mm 1 m/S 712 mmHg 57%
    23:00 +23°C° 0 mm 1 m/S 711 mmHg 59%

    22 August, Dienstag

    Zeit Temperatur Niederschläge Wind Luftdruck Luftfeuchtigkeit
    00:00 +21°C° 0 mm 0 m/S 711 mmHg 61%
    01:00 +21°C° 0 mm 0 m/S 711 mmHg 62%
    02:00 +20°C° 0 mm 0 m/S 711 mmHg 62%
    03:00 +20°C° 0 mm 0 m/S 710 mmHg 63%
    04:00 +20°C° 0 mm 0 m/S 711 mmHg 61%
    05:00 +20°C° 0 mm 0 m/S 711 mmHg 59%
    06:00 +21°C° 0 mm 0 m/S 711 mmHg 57%
    07:00 +23°C° 0 mm 0 m/S 711 mmHg 48%
    08:00 +25°C° 0 mm 0 m/S 712 mmHg 39%
    09:00 +27°C° 0 mm 0 m/S 712 mmHg 30%
    10:00 +30°C° 0 mm 1 m/S 712 mmHg 26%
    11:00 +31°C° 0 mm 1 m/S 712 mmHg 23%
    12:00 +34°C° 0 mm 2 m/S 712 mmHg 20%
    13:00 +34°C° 0 mm 2 m/S 712 mmHg 21%
    14:00 +34°C° 0 mm 3 m/S 711 mmHg 22%
    15:00 +34°C° 0 mm 3 m/S 711 mmHg 22%
    16:00 +33°C° 0 mm 3 m/S 711 mmHg 28%
    17:00 +31°C° 0 mm 3 m/S 711 mmHg 33%
    18:00 +30°C° 0 mm 3 m/S 710 mmHg 39%
    19:00 +28°C° 0 mm 3 m/S 711 mmHg 44%
    20:00 +27°C° 0 mm 2 m/S 711 mmHg 50%
    21:00 +26°C° 0 mm 1 m/S 711 mmHg 55%
    22:00 +26°C° 0 mm 1 m/S 711 mmHg 57%
    23:00 +25°C° 0 mm 1 m/S 711 mmHg 58%

    23 August, Mittwoch

    Zeit Temperatur Niederschläge Wind Luftdruck Luftfeuchtigkeit
    00:00 +25°C° 0 mm 1 m/S 710 mmHg 60%
    01:00 +25°C° 0 mm 1 m/S 710 mmHg 61%
    02:00 +24°C° 0 mm 1 m/S 710 mmHg 62%
    03:00 +24°C° 0 mm 1 m/S 710 mmHg 63%
    04:00 +24°C° 0 mm 1 m/S 710 mmHg 61%
    05:00 +25°C° 0 mm 1 m/S 710 mmHg 60%
    06:00 +25°C° 0 mm 1 m/S 711 mmHg 58%
    07:00 +27°C° 0 mm 1 m/S 711 mmHg 51%
    08:00 +29°C° 0 mm 1 m/S 712 mmHg 43%
    09:00 +31°C° 0 mm 1 m/S 712 mmHg 36%
    10:00 +32°C° 0 mm 2 m/S 712 mmHg 32%
    11:00 +34°C° 0 mm 2 m/S 712 mmHg 29%
    12:00 +35°C° 0 mm 3 m/S 712 mmHg 26%
    13:00 +35°C° 0 mm 3 m/S 712 mmHg 26%
    14:00 +36°C° 0 mm 4 m/S 711 mmHg 26%
    15:00 +36°C° 0 mm 4 m/S 711 mmHg 27%
    16:00 +34°C° 0 mm 4 m/S 711 mmHg 31%
    17:00 +33°C° 0 mm 4 m/S 711 mmHg 36%
    18:00 +32°C° 0 mm 4 m/S 711 mmHg 40%
    19:00 +30°C° 0 mm 3 m/S 711 mmHg 44%
    20:00 +29°C° 0 mm 2 m/S 711 mmHg 47%
    21:00 +28°C° 0 mm 1 m/S 711 mmHg 51%
    22:00 +27°C° 0 mm 1 m/S 711 mmHg 52%
    23:00 +27°C° 0 mm 1 m/S 711 mmHg 52%

    24 August, Donnerstag

    Zeit Temperatur Niederschläge Wind Luftdruck Luftfeuchtigkeit
    00:00 +25°C° 0 mm 0 m/S 711 mmHg 53%
    01:00 +24°C° 0 mm 0 m/S 710 mmHg 53%
    02:00 +26°C° 0 mm 1 m/S 710 mmHg 53%
    03:00 +26°C° 0 mm 1 m/S 710 mmHg 53%
    04:00 +26°C° 0 mm 1 m/S 711 mmHg 52%
    05:00 +27°C° 0 mm 1 m/S 711 mmHg 50%
    06:00 +27°C° 0 mm 1 m/S 711 mmHg 49%
    07:00 +29°C° 0 mm 1 m/S 712 mmHg 44%
    08:00 +31°C° 0 mm 1 m/S 712 mmHg 38%
    09:00 +32°C° 0 mm 2 m/S 713 mmHg 33%
    10:00 +34°C° 0 mm 2 m/S 712 mmHg 30%
    11:00 +36°C° 0 mm 2 m/S 712 mmHg 27%
    12:00 +37°C° 0 mm 3 m/S 712 mmHg 24%
    13:00 +37°C° 0 mm 3 m/S 712 mmHg 23%
    14:00 +37°C° 0 mm 3 m/S 712 mmHg 23%
    15:00 +37°C° 0 mm 4 m/S 711 mmHg 23%
    16:00 +36°C° 0 mm 4 m/S 711 mmHg 26%
    17:00 +35°C° 0 mm 3 m/S 711 mmHg 30%
    18:00 +34°C° 0 mm 3 m/S 711 mmHg 34%
    19:00 +33°C° 0 mm 3 m/S 711 mmHg 37%
    20:00 +31°C° 0 mm 2 m/S 711 mmHg 41%
    21:00 +30°C° 0 mm 2 m/S 711 mmHg 45%
    22:00 +29°C° 0 mm 1 m/S 711 mmHg 45%
    23:00 +29°C° 0 mm 1 m/S 711 mmHg 45%
    Mehr zeigen